STARLINK-11492, 62224

Orbit data source: Space-Track

STARLINK-11492, 62224 is a payload satellite owned by SpaceX/Seattle (US) in LEO that was launched on Thu, 05 Dec 2024 UTC via an FALCON 9 launch vehicle from the Air Force Western Test Range (AFWTR). Payloads include a variety of satellites, spacecraft, and rockets equipped with specific instruments for various scientific and technological missions. These include communications satellites like Starlink; space stations such as the ISS; scientific satellites like the Hubble; Earth observation satellites from companies like Planet Labs, Umbra, and HawkEye 360; GPS; miniature CubeSats for education and research; and military/defense satellites.

Loading next visibility...
STARLINK-11492 details
Identifier
62224, 2024-231G
Orbit
LEO
Last TLE update14 hours ago
Origin
Flag of USSpaceX/Seattle (US)
ManufacturerSpaceX/Seattle
MissionOperational spacecraft
Bus & MotorSTARLINK V2M, Unknown motor
Mass730 kg wet, ~700 kg dry
Launch date (UTC)
2024-12-05 (2 months ago)
Launch vehicle
FALCON 9
Launch site
Air Force Western Test Range (AFWTR)
Object type
Payload
Rocket body
Debris
Shape & HBRUnknown
Radar Cross SectionLarge (>1 m²)

Expand to show TLE details & history

TLE from 14 hours ago
0 STARLINK-11492
1 62224U 24231G   25025.22150749  .00001918  00000-0  20679-4 0  9999
2 62224  53.1583 315.1252 0001004 108.4723 251.6404 15.69714063  9252
Epoch: 2025-01-25T05:18Z
Definitive object data (Epoch: 2025-01-25T05:18:58.247Z)
Latitude-0.00001°
Longitude110.60906°
Altitude360.843 km
Speed7.694 km/s
True Right ascension21h 00m 30s
True Declination0° 00' 00"
Sunlit
Object was in daylight at TLE epoch
Visualization TLE readout
Latitude50.92798°
Longitude-138.8959°
Altitude365.048 km
Speed7.697 km/s
Apparent Right ascension06h 47m 44s
Apparent Declination8° 30' 16"
Sunlit
Object is in full shadow
Visualization observer readout
Local Sidereal Time20:51:40
Azimuth37.753° NE
Elevation-33.74°
Doppler factor1
Orbital elements
Apogee altitude360.653 km
Perigee altitude359.3 km
Semi-major axis6,738.113 km
Eccentricity0.0001004
Inclination53.1583°
RAAN315.1252°
Arg. of periapsis108.4723°
True anomaly251.62948°
Mean anomaly251.6404°
Eccentric anomaly251.63494°
Mean motion3.92406 °/min
BSTAR0.000020679
Orbital period91.74 mins
Loading maneuver chart data...
Loading historical data...
Loading historical data...
Loading historical data...
Loading historical data...
Loading historical data...
Loading historical data...
Loading historical data...

STARLINK-11492 Visibility forecast

Observer location: undefined°, undefined

Span
Click to sort rows by Start time (UTC) header in descending order
Start Az.
Max El. time (UTC)
Max El. Az.
Max El.
End time (UTC)
End Az.
4 mins2025-01-25 22:20:42.902Z263.422° W2025-01-25 22:21:42.902Z311.218° NW37.108°2025-01-25 22:24:42.902Z40.707° NE
4 mins2025-01-26 04:44:42.902Z308.032° NW2025-01-26 04:46:42.902Z161.318° S44.403°2025-01-26 04:48:42.902Z133.487° SE
|